This is the latest recevied weather packets stored in our database for station/object AI9F. If no packets are shown the sender has not sent any weather packets the latest 10 day(s).
| Time | Temp. | Humidity | Pressure | Rain* | Wind** | Luminosity | Snow |
|---|---|---|---|---|---|---|---|
| 1777731514 | 10° C | 79% | 1019.5 hPa | 0 mm | - | 65 W/m² | - |
| 1777731212 | 10° C | 78% | 1019.4 hPa | 0 mm | - | 58 W/m² | - |
| 1777730909 | 10° C | 78% | 1019.2 hPa | 0 mm | - | 68 W/m² | - |
| 1777730607 | 10° C | 78% | 1019.4 hPa | 0 mm | - | 90 W/m² | - |
| 1777730303 | 9.44° C | 78% | 1019.2 hPa | 0 mm | - | 71 W/m² | - |
| 1777730000 | 10° C | 80% | 1019.1 hPa | 0 mm | - | 57 W/m² | - |
| 1777729695 | 10° C | 77% | 1019.1 hPa | 0 mm | - | 52 W/m² | - |
| 1777729393 | 10.56° C | 78% | 1019.2 hPa | 0 mm | - | 61 W/m² | - |
| 1777729089 | 10° C | 81% | 1018.9 hPa | 0 mm | - | 153 W/m² | - |
| 1777728786 | 10° C | 81% | 1018.9 hPa | 0 mm | - | 149 W/m² | - |
| 1777728483 | 10° C | 83% | 1019.2 hPa | 0 mm | - | 77 W/m² | - |
| 1777728180 | 9.44° C | 83% | 1019 hPa | 0 mm | - | 88 W/m² | - |
| 1777727877 | 9.44° C | 82% | 1019.1 hPa | 0 mm | - | 128 W/m² | - |
| 1777727574 | 9.44° C | 83% | 1018.8 hPa | 0 mm | - | 81 W/m² | - |
| 1777727271 | 9.44° C | 83% | 1018.9 hPa | 0 mm | - | 54 W/m² | - |
| 1777726969 | 9.44° C | 83% | 1019.1 hPa | 0 mm | - | 47 W/m² | - |
| 1777726665 | 9.44° C | 83% | 1019 hPa | 0 mm | - | 45 W/m² | - |
| 1777726363 | 9.44° C | 82% | 1018.7 hPa | 0 mm | - | 56 W/m² | - |
| 1777726059 | 9.44° C | 82% | 1018.8 hPa | 0 mm | - | 48 W/m² | - |
| 1777725756 | 9.44° C | 81% | 1019 hPa | 0 mm | - | 48 W/m² | - |
| 1777725455 | 9.44° C | 82% | 1018.8 hPa | 0 mm | - | 39 W/m² | - |
| 1777725151 | 9.44° C | 81% | 1018.8 hPa | 0 mm | - | 44 W/m² | - |
| 1777724848 | 9.44° C | 81% | 1018.9 hPa | 0 mm | - | 46 W/m² | - |
| 1777724544 | 9.44° C | 82% | 1018.6 hPa | 0 mm | - | 47 W/m² | - |
| 1777724243 | 9.44° C | 81% | 1018.6 hPa | 0 mm | - | 48 W/m² | - |
* Rain latest hour (hover to see other rain measurements)
** Current wind speed in m/s (hover to see current wind gust speed)